Location: Unspecified
(0.0000°N, 0.0000°E)
Time: 21:06:59
(UTC+00:00)

USA 259 - Visible Passes

Search period start: 27 May 2024 00:00
Search period end: 06 June 2024 00:00
Orbit: 2234 x 38123 km, 62.8° (Epoch: 08 May)

Date Brightness Start Highest point End Pass type
(mag) Time Alt. Az. Time Alt. Az. Time Alt. Az.
27 May ? 19:02:17 10° SW 19:28:26 64° WNW 06:27:47 10° SSE visible
28 May ? 18:57:57 10° SW 19:24:06 64° WNW 06:23:27 10° SSE visible
29 May ? 18:53:37 10° SW 19:19:46 64° WNW 06:19:06 10° SSE visible
30 May ? 18:49:17 10° SW 19:15:26 64° WNW 06:14:46 10° SSE visible
31 May ? 18:44:57 10° SW 19:11:05 64° WNW 06:10:26 10° SSE visible
01 Jun ? 18:40:37 10° SW 19:06:45 64° WNW 06:06:06 10° SSE visible
02 Jun ? 18:36:16 10° SW 19:02:25 64° WNW 06:01:46 10° SSE visible
03 Jun ? 18:31:56 10° SW 18:58:04 64° WNW 05:57:25 10° SSE visible
04 Jun ? 18:27:36 10° SW 18:53:44 64° WNW 05:53:05 10° SSE visible
